Regional Weather Roundup
Issued by NWS

Home | Current Version | Previous Version | Graphics & Text | Print | Product List | Glossary On
Versions: 1 2 3 4 5 6 7 8 9 10 11 12 13 14 15 16 17 18 19 20 21 22 23 24 25 26 27 28 29 30 31 32 33 34 35 36 37 38 39 40 41 42 43 44 45 46 47 48 49 50
000
ASUS43 KBIS 190310
RWRND

NORTH DAKOTA REGIONAL WEATHER ROUNDUP
NATIONAL WEATHER SERVICE BISMARCK ND
900 PM CST SUN FEB 18 2018

NOTE: "FAIR" INDICATES FEW OR NO CLOUDS BELOW 12,000 FEET WITH NO
SIGNIFICANT WEATHER AND/OR OBSTRUCTIONS TO VISIBILITY.


NDZ001>003-009>011-017-190400-
NORTHWEST NORTH DAKOTA

CITY           SKY/WX    TMP DP  RH WIND       PRES   REMARKS
WILLISTON      MOCLDY    -1  -5  82 CALM      30.12R
MINOT          CLOUDY     3  -6  66 W8        30.09R WCI -10
MINOT AFB      CLOUDY    -1  -8  71 NW7       30.09R WCI -15
$$

NDZ018>021-031>035-040>046-190400-
SOUTHWEST NORTH DAKOTA

CITY           SKY/WX    TMP DP  RH WIND       PRES   REMARKS
BISMARCK       CLOUDY     9   1  70 N13G21    30.05R WCI  -7
DICKINSON      CLOUDY     5  -2  72 N8        29.97S WCI  -8
GARRISON         N/A      5  -2  72 N8        30.07R WCI  -8
HETTINGER ARPT LGT SNOW   4  -1  80 N14       29.97R WCI -14
$$

NDZ004>008-012>016-024-026-027-054-190400-
NORTHEAST NORTH DAKOTA

CITY           SKY/WX    TMP DP  RH WIND       PRES   REMARKS
GRAND FORKS    MOCLDY     9   2  73 N20       30.05R WCI -10
GRND FRKS AFB  FAIR       8  -1  67 N17       30.05R WCI -10
DEVILS LAKE    FAIR       6   0  76 N10       30.07R WCI  -9
$$

NDZ022-023-025-028>030-036>039-047>053-190400-
SOUTHEAST NORTH DAKOTA

CITY           SKY/WX    TMP DP  RH WIND       PRES   REMARKS
FARGO          FAIR      11   6  81 N23G33    29.96R WCI  -9
JAMESTOWN      CLOUDY     8   2  76 N18       29.97R WCI -11
$$




USA.gov is the U.S. government's official web portal to all federal, state and local government web resources and services.